IBE09RY LEMD-GOBD

Flight info

Callsign IBE09RY
Flight time N/A
Altitude 31000
Route VTB N10 VJF/N0450F330 N10 LINTO UN10 BARIS UB11 MABAP UN869 ADM UR975 DIDAN/N0459F320 UR975 ECHED/N0463F340 DCT NEVDI UR975 SAKLI SAKLI1G
Aircraft A321/M-SDE1FGHIRWY/SB1

Departure

Time 2026-05-05 18:59
Airport Adolfo Suárez Madrid–Barajas Airport (LEMD)

Arrival

Time N/A
Airport Blaise Diagne International Airport (GOBD)
Time Latitude Longitude Altitude Speed Heading
2026-05-05 18:32 40.49331 -3.56349 1964 ft 0 kts 270°
2026-05-05 18:52 40.49331 -3.56357 1964 ft 1 kts 270°
2026-05-05 18:52 40.49331 -3.56376 1965 ft 3 kts 270°
2026-05-05 18:52 40.49330 -3.56405 1966 ft 4 kts 264°
2026-05-05 18:53 40.49317 -3.56436 1968 ft 4 kts 223°
2026-05-05 18:53 40.49286 -3.56450 1967 ft 6 kts 183°
2026-05-05 18:53 40.49220 -3.56447 1967 ft 14 kts 177°
2026-05-05 18:53 40.49105 -3.56450 1971 ft 21 kts 182°
2026-05-05 18:54 40.48959 -3.56446 1967 ft 21 kts 179°
2026-05-05 18:54 40.48826 -3.56446 1967 ft 18 kts 179°
2026-05-05 18:54 40.48768 -3.56534 1973 ft 12 kts 270°
2026-05-05 18:54 40.48766 -3.56625 1976 ft 8 kts 271°
2026-05-05 18:55 40.48767 -3.56696 1978 ft 9 kts 271°
2026-05-05 18:55 40.48766 -3.56794 1978 ft 13 kts 267°
2026-05-05 18:55 40.48767 -3.56924 1981 ft 16 kts 271°
2026-05-05 18:55 40.48770 -3.57084 1984 ft 19 kts 271°
2026-05-05 18:56 40.48808 -3.57227 1987 ft 19 kts 355°
2026-05-05 18:56 40.48956 -3.57231 1983 ft 24 kts 360°
2026-05-05 18:56 40.49038 -3.57270 1984 ft 8 kts 320°
2026-05-05 18:56 40.49071 -3.57313 1986 ft 5 kts 313°
2026-05-05 18:57 40.49096 -3.57349 1986 ft 8 kts 314°
2026-05-05 18:57 40.49153 -3.57427 1985 ft 16 kts 314°
2026-05-05 18:57 40.49252 -3.57451 1984 ft 10 kts
2026-05-05 18:57 40.49272 -3.57451 1983 ft 0 kts 360°
2026-05-05 18:58 40.49329 -3.57452 1983 ft 34 kts 360°
2026-05-05 18:58 40.49821 -3.57456 1987 ft 105 kts 359°
2026-05-05 18:58 40.50754 -3.57465 1996 ft 161 kts 360°
2026-05-05 18:59 40.52032 -3.57495 2122 ft 196 kts 354°
2026-05-05 18:59 40.53318 -3.57522 3052 ft 184 kts 355°
2026-05-05 18:59 40.54593 -3.57563 3969 ft 179 kts 355°
2026-05-05 18:59 40.55763 -3.57800 4502 ft 169 kts 324°
2026-05-05 19:00 40.56539 -3.58917 4897 ft 169 kts 295°
2026-05-05 19:00 40.57029 -3.60328 5211 ft 174 kts 307°
2026-05-05 19:00 40.57958 -3.61442 5363 ft 189 kts 320°
2026-05-05 19:00 40.59007 -3.62553 5512 ft 204 kts 320°
2026-05-05 19:01 40.60135 -3.63758 5813 ft 212 kts 320°
2026-05-05 19:01 40.61272 -3.64974 6272 ft 215 kts 320°
2026-05-05 19:01 40.62436 -3.66223 6747 ft 217 kts 320°
2026-05-05 19:01 40.63611 -3.67485 7195 ft 219 kts 319°
2026-05-05 19:02 40.64758 -3.68817 7646 ft 220 kts 306°
2026-05-05 19:02 40.65372 -3.70650 7994 ft 227 kts 273°
2026-05-05 19:02 40.65030 -3.72688 8260 ft 239 kts 239°
2026-05-05 19:02 40.64004 -3.74401 8764 ft 242 kts 232°
2026-05-05 19:03 40.62787 -3.75933 9285 ft 246 kts 215°
2026-05-05 19:03 40.61171 -3.76740 9704 ft 257 kts 188°
2026-05-05 19:03 40.59374 -3.76443 9917 ft 278 kts 159°
2026-05-05 19:03 40.57800 -3.74857 10056 ft 299 kts 130°
2026-05-05 19:04 40.56511 -3.72630 10252 ft 313 kts 128°
2026-05-05 19:04 40.55174 -3.70266 10387 ft 330 kts 128°
2026-05-05 19:04 40.53778 -3.67792 10515 ft 345 kts 128°
2026-05-05 19:04 40.52316 -3.65212 10647 ft 360 kts 128°
2026-05-05 19:05 40.50794 -3.62534 10856 ft 370 kts 128°
2026-05-05 19:05 40.49224 -3.59820 11237 ft 375 kts 131°
2026-05-05 19:05 40.47344 -3.57526 11668 ft 374 kts 147°
2026-05-05 19:05 40.45057 -3.55914 12133 ft 374 kts 162°
2026-05-05 19:06 40.42744 -3.55154 12553 ft 372 kts 175°
2026-05-05 19:06 40.40160 -3.54817 12987 ft 375 kts 176°
2026-05-05 19:06 40.37583 -3.54485 13428 ft 378 kts 176°
2026-05-05 19:06 40.35023 -3.54147 13840 ft 381 kts 176°
2026-05-05 19:07 40.32372 -3.53790 14243 ft 383 kts 176°
2026-05-05 19:07 40.29710 -3.53425 14629 ft 386 kts 176°
2026-05-05 19:07 40.27044 -3.53053 15009 ft 388 kts 176°
2026-05-05 19:07 40.24350 -3.52676 15392 ft 390 kts 176°
2026-05-05 19:08 40.21640 -3.52299 15772 ft 393 kts 176°
2026-05-05 19:08 40.18911 -3.51921 16125 ft 396 kts 177°
2026-05-05 19:08 40.16156 -3.51545 16471 ft 398 kts 177°
2026-05-05 19:08 40.13437 -3.51177 16805 ft 400 kts 177°
2026-05-05 19:09 40.10618 -3.50800 17141 ft 403 kts 177°
2026-05-05 19:09 40.07858 -3.50428 17439 ft 405 kts 177°
2026-05-05 19:09 40.05048 -3.50048 17754 ft 407 kts 178°
2026-05-05 19:09 40.02217 -3.49666 18061 ft 410 kts 178°
2026-05-05 19:10 39.99411 -3.49289 18345 ft 412 kts 178°
2026-05-05 19:10 39.96593 -3.48908 18572 ft 414 kts 178°
2026-05-05 19:10 39.93715 -3.48519 18806 ft 417 kts 179°
2026-05-05 19:10 39.90864 -3.48132 19112 ft 419 kts 179°
2026-05-05 19:11 39.87960 -3.47739 19461 ft 420 kts 179°
2026-05-05 19:11 39.85077 -3.47352 19800 ft 422 kts 179°
2026-05-05 19:11 39.82158 -3.46960 20141 ft 424 kts 180°
2026-05-05 19:11 39.79214 -3.46564 20486 ft 426 kts 180°
2026-05-05 19:12 39.76280 -3.46401 20792 ft 419 kts 192°
2026-05-05 19:12 39.73501 -3.47283 21092 ft 406 kts 210°
2026-05-05 19:12 39.71123 -3.49155 21420 ft 394 kts 226°
2026-05-05 19:12 39.69321 -3.51756 21756 ft 385 kts 242°
2026-05-05 19:13 39.68185 -3.54854 22086 ft 379 kts 256°
2026-05-05 19:13 39.67510 -3.58145 22393 ft 380 kts 254°
2026-05-05 19:13 39.66405 -3.61298 22718 ft 386 kts 242°
2026-05-05 19:13 39.64732 -3.64000 23029 ft 394 kts 231°
2026-05-05 19:14 39.62826 -3.66549 23351 ft 395 kts 231°
2026-05-05 19:14 39.60887 -3.69094 23644 ft 396 kts 231°
2026-05-05 19:14 39.58942 -3.71620 23891 ft 397 kts 230°
2026-05-05 19:14 39.56977 -3.74167 24128 ft 398 kts 230°
2026-05-05 19:15 39.55014 -3.76711 24362 ft 399 kts 230°
2026-05-05 19:15 39.53055 -3.79258 24589 ft 401 kts 230°
2026-05-05 19:15 39.51091 -3.81823 24781 ft 402 kts 230°
2026-05-05 19:15 39.49117 -3.84403 24967 ft 404 kts 230°
2026-05-05 19:16 39.47137 -3.86986 25163 ft 406 kts 230°
2026-05-05 19:16 39.45173 -3.89543 25376 ft 407 kts 230°
2026-05-05 19:16 39.43171 -3.92146 25602 ft 408 kts 230°
2026-05-05 19:16 39.41170 -3.94749 25814 ft 409 kts 230°
2026-05-05 19:17 39.39172 -3.97344 26033 ft 410 kts 230°
2026-05-05 19:17 39.37154 -3.99964 26244 ft 411 kts 230°
2026-05-05 19:17 39.35137 -4.02582 26463 ft 412 kts 230°
2026-05-05 19:17 39.33121 -4.05199 26670 ft 412 kts 230°
2026-05-05 19:18 39.31091 -4.07832 26848 ft 413 kts 230°
2026-05-05 19:18 39.29156 -4.10339 27026 ft 414 kts 230°
2026-05-05 19:18 39.27118 -4.12973 27180 ft 415 kts 230°
2026-05-05 19:18 39.25074 -4.15609 27364 ft 416 kts 229°
2026-05-05 19:19 39.23053 -4.18212 27531 ft 416 kts 229°
2026-05-05 19:19 39.21005 -4.20845 27699 ft 417 kts 229°
2026-05-05 19:19 39.18939 -4.23499 27850 ft 418 kts 229°
2026-05-05 19:19 39.16889 -4.26137 28089 ft 417 kts 230°
2026-05-05 19:20 39.14835 -4.28786 28306 ft 416 kts 230°
2026-05-05 19:20 39.12801 -4.31404 28538 ft 415 kts 229°
2026-05-05 19:20 39.10782 -4.33996 28721 ft 414 kts 229°
2026-05-05 19:20 39.09477 -4.35667 28884 ft 413 kts 229°
2026-05-05 19:21 39.08340 -4.37125 28999 ft 413 kts 230°
2026-05-05 19:21 39.06282 -4.39771 29228 ft 412 kts 230°
2026-05-05 19:21 39.04280 -4.42336 29435 ft 411 kts 229°
2026-05-05 19:22 39.02257 -4.44921 29613 ft 410 kts 230°
2026-05-05 19:22 39.00241 -4.47491 29846 ft 408 kts 230°
2026-05-05 19:22 38.98229 -4.50053 30064 ft 406 kts 230°
2026-05-05 19:22 38.96227 -4.52605 30218 ft 406 kts 230°
2026-05-05 19:23 38.94220 -4.55161 30378 ft 405 kts 230°
2026-05-05 19:23 38.92224 -4.57704 30529 ft 404 kts 230°
2026-05-05 19:23 38.90226 -4.60249 30689 ft 404 kts 230°
2026-05-05 19:23 38.88236 -4.62785 30856 ft 404 kts 230°
2026-05-05 19:24 38.86260 -4.65299 30962 ft 403 kts 230°
2026-05-05 19:24 38.84286 -4.67805 30978 ft 400 kts 230°
2026-05-05 19:24 38.80339 -4.72806 30972 ft 398 kts 230°
2026-05-05 19:25 38.76399 -4.77794 30975 ft 398 kts 230°
2026-05-05 19:25 38.72454 -4.82780 30977 ft 398 kts 230°
2026-05-05 19:26 38.68533 -4.87722 30974 ft 398 kts 230°
2026-05-05 19:26 38.64590 -4.92691 30969 ft 398 kts 229°
2026-05-05 19:27 38.60643 -4.97648 30961 ft 398 kts 229°
2026-05-05 19:27 38.56683 -5.02618 30960 ft 399 kts 229°
2026-05-05 19:28 38.52715 -5.07581 30925 ft 399 kts 229°
2026-05-05 19:28 38.48141 -5.11651 30938 ft 412 kts 212°
2026-05-05 19:29 38.42975 -5.14844 30948 ft 413 kts 212°
2026-05-05 19:29 38.37812 -5.18053 30958 ft 413 kts 212°
2026-05-05 19:30 38.32638 -5.21269 30960 ft 413 kts 212°
2026-05-05 19:30 38.27497 -5.24459 30959 ft 413 kts 212°
2026-05-05 19:31 38.22334 -5.27652 30963 ft 414 kts 212°
2026-05-05 19:31 38.17356 -5.30725 30966 ft 414 kts 212°
2026-05-05 19:32 38.12190 -5.33908 30976 ft 414 kts 212°
2026-05-05 19:32 38.07041 -5.37068 30974 ft 414 kts 212°
2026-05-05 19:33 38.02929 -5.39591 30941 ft 414 kts 212°
2026-05-05 19:33 37.97722 -5.42791 30948 ft 415 kts 212°
2026-05-05 19:34 37.92526 -5.45983 30952 ft 415 kts 212°
2026-05-05 19:35 37.84748 -5.50733 30948 ft 416 kts 212°
2026-05-05 19:35 37.79543 -5.53905 30929 ft 416 kts 211°
2026-05-05 19:36 37.74333 -5.57082 30938 ft 416 kts 211°
2026-05-05 19:36 37.69131 -5.60256 30944 ft 416 kts 211°
2026-05-05 19:37 37.63924 -5.63421 30940 ft 416 kts 211°
2026-05-05 19:37 37.58726 -5.66575 30936 ft 416 kts 211°
2026-05-05 19:38 37.53565 -5.69702 30921 ft 417 kts 210°
2026-05-05 19:38 37.48323 -5.72874 30929 ft 418 kts 210°
2026-05-05 19:39 37.42997 -5.75857 30916 ft 424 kts 202°
2026-05-05 19:39 37.37140 -5.77247 30925 ft 431 kts 193°
2026-05-05 19:40 37.31240 -5.78321 30918 ft 432 kts 193°
2026-05-05 19:40 37.25292 -5.79405 30938 ft 433 kts 193°
2026-05-05 19:41 37.19323 -5.80487 30946 ft 433 kts 193°
2026-05-05 19:41 37.13365 -5.81568 30960 ft 433 kts 193°
2026-05-05 19:42 37.07437 -5.82637 30953 ft 433 kts 193°
2026-05-05 19:42 37.01472 -5.83710 30973 ft 432 kts 193°
2026-05-05 19:43 36.95521 -5.84777 30989 ft 432 kts 193°
2026-05-05 19:43 36.89574 -5.85856 31001 ft 431 kts 193°
2026-05-05 19:44 36.83668 -5.86917 30989 ft 431 kts 193°
2026-05-05 19:44 36.77784 -5.87972 31205 ft 433 kts 193°
2026-05-05 19:44 36.74804 -5.88510 31348 ft 433 kts 193°
2026-05-05 19:45 36.71813 -5.89047 31514 ft 433 kts 193°
2026-05-05 19:45 36.68839 -5.89576 31684 ft 432 kts 193°
2026-05-05 19:45 36.65864 -5.90103 31864 ft 431 kts 193°
2026-05-05 19:45 36.62884 -5.90631 32034 ft 431 kts 193°
2026-05-05 19:46 36.59933 -5.91154 32195 ft 430 kts 193°
2026-05-05 19:46 36.56961 -5.91682 32362 ft 429 kts 193°
2026-05-05 19:46 36.54055 -5.92203 32531 ft 429 kts 193°
2026-05-05 19:46 36.51064 -5.92742 32701 ft 428 kts 193°
2026-05-05 19:47 36.48156 -5.93263 32874 ft 427 kts 193°
2026-05-05 19:47 36.45216 -5.93785 33002 ft 427 kts 192°
2026-05-05 19:47 36.42278 -5.94305 33008 ft 426 kts 192°
2026-05-05 19:48 36.36419 -5.95345 33013 ft 426 kts 193°
2026-05-05 19:48 36.30574 -5.96386 33014 ft 427 kts 192°
2026-05-05 19:49 36.24688 -5.97394 33019 ft 429 kts 188°
2026-05-05 19:49 36.18751 -5.97270 33021 ft 434 kts 182°
2026-05-05 19:50 36.12718 -5.96952 33022 ft 434 kts 182°
2026-05-05 19:50 36.06684 -5.96660 33001 ft 435 kts 182°
2026-05-05 19:51 36.00673 -5.96356 33001 ft 436 kts 181°
2026-05-05 19:51 35.94637 -5.96032 33004 ft 437 kts 181°
2026-05-05 19:52 35.88556 -5.95709 32997 ft 438 kts 181°
2026-05-05 19:52 35.82473 -5.95073 33015 ft 443 kts 172°
2026-05-05 19:53 35.76535 -5.93044 33022 ft 445 kts 168°
2026-05-05 19:53 35.70461 -5.91902 33021 ft 436 kts 184°
2026-05-05 19:54 35.64429 -5.91868 33019 ft 437 kts 184°
2026-05-05 19:54 35.58366 -5.91819 33005 ft 437 kts 183°
2026-05-05 19:55 35.52271 -5.91769 32995 ft 439 kts 184°
2026-05-05 19:55 35.46165 -5.91722 32999 ft 440 kts 183°
2026-05-05 19:56 35.40076 -5.91671 33005 ft 440 kts 184°
2026-05-05 19:56 35.33951 -5.91753 32996 ft 440 kts 185°
2026-05-05 19:57 35.27818 -5.91977 33003 ft 441 kts 185°
2026-05-05 19:57 35.21691 -5.92193 33012 ft 442 kts 185°
2026-05-05 19:58 35.15566 -5.92358 33011 ft 442 kts 185°
2026-05-05 19:58 35.09423 -5.92513 33000 ft 442 kts 184°
2026-05-05 19:59 35.03274 -5.92684 33012 ft 442 kts 184°
2026-05-05 19:59 34.97108 -5.92864 33017 ft 443 kts 184°
2026-05-05 20:00 34.91101 -5.94069 33012 ft 435 kts 202°
2026-05-05 20:00 34.85860 -5.97481 33016 ft 429 kts 220°
2026-05-05 20:01 34.81252 -6.02076 33006 ft 429 kts 220°
2026-05-05 20:01 34.76607 -6.06676 33014 ft 430 kts 220°
2026-05-05 20:02 34.71970 -6.11260 33014 ft 431 kts 220°
2026-05-05 20:02 34.67296 -6.15870 33011 ft 432 kts 220°
2026-05-05 20:03 34.62656 -6.20438 33011 ft 433 kts 220°
2026-05-05 20:03 34.57976 -6.25045 33010 ft 433 kts 220°
2026-05-05 20:04 34.53298 -6.29649 33004 ft 434 kts 220°
2026-05-05 20:04 34.48192 -6.33540 33011 ft 437 kts 204°
2026-05-05 20:05 34.42397 -6.35742 33015 ft 440 kts 198°
2026-05-05 20:05 34.36515 -6.37811 33020 ft 440 kts 198°
2026-05-05 20:06 34.30669 -6.39869 33023 ft 441 kts 198°
2026-05-05 20:06 34.24787 -6.41927 33052 ft 439 kts 199°
2026-05-05 20:07 34.18934 -6.43973 33060 ft 437 kts 199°
2026-05-05 20:07 34.13126 -6.46001 33060 ft 436 kts 199°
2026-05-05 20:08 34.07306 -6.48040 33051 ft 437 kts 199°
2026-05-05 20:08 34.01462 -6.50080 33043 ft 437 kts 200°
2026-05-05 20:09 33.96060 -6.53145 33061 ft 425 kts 219°
2026-05-05 20:09 33.91729 -6.57827 33071 ft 420 kts 227°
2026-05-05 20:10 33.87543 -6.62739 33067 ft 420 kts 227°
2026-05-05 20:10 33.83351 -6.67635 33065 ft 420 kts 227°
2026-05-05 20:11 33.79165 -6.72526 33073 ft 420 kts 227°
2026-05-05 20:11 33.75025 -6.77361 33065 ft 410 kts 228°
2026-05-05 20:12 33.71019 -6.82019 33048 ft 397 kts 228°
2026-05-05 20:12 33.67057 -6.86632 33066 ft 399 kts 227°
2026-05-05 20:13 33.63047 -6.91304 33060 ft 403 kts 227°
2026-05-05 20:13 33.59014 -6.95997 33060 ft 404 kts 227°
2026-05-05 20:14 33.55015 -7.00634 33064 ft 404 kts 227°
2026-05-05 20:14 33.50982 -7.05306 33063 ft 404 kts 227°
2026-05-05 20:15 33.46935 -7.09984 33066 ft 401 kts 228°
2026-05-05 20:15 33.42991 -7.14530 33063 ft 389 kts 228°
2026-05-05 20:16 33.39104 -7.19013 33065 ft 387 kts 229°
2026-05-05 20:16 33.35256 -7.23456 33067 ft 389 kts 228°
2026-05-05 20:17 33.31327 -7.27983 33067 ft 394 kts 228°
2026-05-05 20:17 33.27366 -7.32537 33068 ft 395 kts 228°
2026-05-05 20:18 33.23398 -7.37085 33074 ft 396 kts 228°
2026-05-05 20:18 33.19421 -7.41635 33078 ft 396 kts 228°
2026-05-05 20:19 33.15472 -7.46147 33074 ft 396 kts 228°
2026-05-05 20:19 33.11411 -7.50592 33079 ft 399 kts 221°
2026-05-05 20:20 33.06629 -7.54090 33078 ft 403 kts 216°
2026-05-05 20:20 33.01797 -7.57493 33071 ft 404 kts 216°
2026-05-05 20:21 32.96996 -7.60881 33064 ft 404 kts 216°
2026-05-05 20:21 32.92151 -7.64292 33008 ft 406 kts 216°
2026-05-05 20:22 32.87308 -7.67680 33083 ft 401 kts 217°
2026-05-05 20:22 32.84912 -7.69360 33090 ft 400 kts 217°
2026-05-05 20:24 32.80063 -7.72677 33071 ft 396 kts 217°
2026-05-05 20:25 32.75351 -7.76017 33068 ft 395 kts 217°
2026-05-05 20:25 32.70804 -7.79246 33060 ft 395 kts 217°
2026-05-05 20:26 32.66107 -7.82539 33048 ft 395 kts 217°
2026-05-05 20:26 32.61389 -7.85823 33050 ft 386 kts 218°
2026-05-05 20:27 32.56799 -7.89007 33046 ft 380 kts 218°
2026-05-05 20:27 32.52242 -7.92174 33052 ft 380 kts 218°
2026-05-05 20:28 32.47698 -7.95334 33053 ft 380 kts 218°
2026-05-05 20:28 32.43179 -7.98476 33051 ft 380 kts 218°
2026-05-05 20:29 32.38611 -8.01638 33051 ft 380 kts 218°
2026-05-05 20:29 32.34055 -8.04790 33035 ft 378 kts 219°
2026-05-05 20:30 32.29532 -8.07916 33075 ft 375 kts 219°
2026-05-05 20:30 32.25071 -8.10995 33080 ft 373 kts 219°
2026-05-05 20:31 32.20629 -8.14060 33070 ft 371 kts 219°
2026-05-05 20:31 32.16921 -8.16618 33066 ft 371 kts 219°
2026-05-05 20:32 32.12468 -8.19675 33061 ft 370 kts 219°
2026-05-05 20:32 32.08009 -8.22701 33034 ft 370 kts 219°
2026-05-05 20:33 32.03531 -8.25696 33063 ft 369 kts 219°
2026-05-05 20:33 31.98359 -8.29152 33058 ft 367 kts 219°
2026-05-05 20:34 31.94639 -8.31648 33061 ft 366 kts 219°
2026-05-05 20:34 31.90247 -8.34594 33068 ft 366 kts 219°
2026-05-05 20:35 31.85821 -8.37560 33059 ft 366 kts 219°
2026-05-05 20:35 31.81399 -8.40521 33036 ft 366 kts 219°
2026-05-05 20:36 31.76976 -8.43474 32996 ft 366 kts 219°
2026-05-05 20:36 31.72580 -8.46406 33012 ft 366 kts 219°
2026-05-05 20:37 31.68146 -8.49351 33019 ft 366 kts 219°
2026-05-05 20:37 31.63748 -8.52280 33019 ft 365 kts 219°
2026-05-05 20:38 31.59323 -8.55224 33028 ft 365 kts 219°
2026-05-05 20:38 31.54903 -8.58147 33034 ft 365 kts 219°
2026-05-05 20:39 31.50479 -8.61066 32970 ft 365 kts 219°
2026-05-05 20:39 31.46067 -8.63997 33010 ft 368 kts 219°
2026-05-05 20:40 31.41622 -8.66943 33028 ft 368 kts 219°
2026-05-05 20:40 31.37160 -8.69895 33044 ft 368 kts 219°
2026-05-05 20:41 31.32721 -8.72826 33061 ft 368 kts 219°
2026-05-05 20:41 31.28295 -8.75743 33045 ft 368 kts 219°
2026-05-05 20:42 31.23873 -8.78660 33045 ft 368 kts 219°
2026-05-05 20:42 31.19415 -8.81596 33026 ft 368 kts 218°
2026-05-05 20:43 31.14943 -8.84534 33039 ft 369 kts 218°
2026-05-05 20:43 31.10500 -8.87449 33041 ft 368 kts 218°
2026-05-05 20:44 31.06038 -8.90372 33031 ft 368 kts 218°
2026-05-05 20:44 31.01607 -8.93276 33033 ft 368 kts 218°
2026-05-05 20:45 30.94898 -8.97668 33020 ft 368 kts 218°
2026-05-05 20:45 30.90463 -9.00568 32977 ft 368 kts 218°
2026-05-05 20:46 30.86002 -9.03474 32968 ft 368 kts 218°
2026-05-05 20:46 30.81536 -9.06383 32978 ft 368 kts 218°
2026-05-05 20:47 30.77069 -9.09296 32977 ft 368 kts 218°
2026-05-05 20:47 30.72597 -9.12209 32959 ft 368 kts 218°
2026-05-05 20:48 30.68151 -9.15096 32963 ft 369 kts 218°
2026-05-05 20:48 30.63665 -9.18006 32954 ft 369 kts 218°
2026-05-05 20:49 30.59195 -9.20903 32921 ft 369 kts 218°
2026-05-05 20:49 30.54706 -9.23808 32933 ft 370 kts 217°
2026-05-05 20:50 30.50220 -9.26710 32938 ft 370 kts 218°
2026-05-05 20:50 30.45757 -9.29600 32942 ft 370 kts 218°
2026-05-05 20:51 30.41262 -9.32506 32954 ft 370 kts 218°
2026-05-05 20:51 30.36771 -9.35402 32945 ft 370 kts 217°
2026-05-05 20:52 30.32255 -9.38269 32950 ft 373 kts 214°
2026-05-05 20:52 30.27388 -9.40437 32952 ft 378 kts 210°
2026-05-05 20:53 30.22457 -9.42579 32953 ft 378 kts 210°
2026-05-05 20:53 30.17530 -9.44732 32952 ft 378 kts 210°
2026-05-05 20:54 30.12600 -9.46881 32973 ft 379 kts 210°
2026-05-05 20:54 30.07704 -9.49005 32969 ft 379 kts 210°
2026-05-05 20:55 30.02766 -9.51144 32936 ft 379 kts 210°
2026-05-05 20:55 29.97843 -9.53278 32937 ft 379 kts 210°
2026-05-05 20:56 29.92898 -9.55415 32954 ft 379 kts 210°
2026-05-05 20:56 29.88003 -9.57544 32957 ft 379 kts 210°
2026-05-05 20:57 29.83075 -9.59701 32963 ft 379 kts 210°
2026-05-05 20:57 29.78149 -9.61851 32976 ft 379 kts 210°
2026-05-05 20:58 29.73210 -9.64001 32949 ft 380 kts 210°
2026-05-05 20:58 29.68265 -9.66147 32972 ft 380 kts 210°
2026-05-05 20:59 29.63340 -9.68280 32973 ft 380 kts 210°
2026-05-05 20:59 29.58394 -9.70425 32980 ft 380 kts 210°
2026-05-05 21:00 29.53454 -9.72571 32983 ft 380 kts 210°
2026-05-05 21:00 29.48492 -9.74725 32985 ft 380 kts 210°
2026-05-05 21:01 29.43546 -9.76867 32955 ft 381 kts 209°
2026-05-05 21:01 29.38645 -9.78986 32964 ft 381 kts 209°
2026-05-05 21:02 29.33677 -9.81124 32967 ft 382 kts 209°
2026-05-05 21:02 29.28706 -9.83259 32971 ft 382 kts 209°
2026-05-05 21:03 29.23734 -9.85401 32984 ft 382 kts 209°
2026-05-05 21:03 29.18763 -9.87538 32969 ft 382 kts 209°
2026-05-05 21:04 29.13790 -9.89675 32926 ft 382 kts 209°
2026-05-05 21:04 29.08838 -9.91797 32931 ft 383 kts 208°
2026-05-05 21:05 29.03851 -9.93934 32931 ft 383 kts 208°
2026-05-05 21:05 28.98868 -9.96065 32962 ft 383 kts 208°
2026-05-05 21:06 28.93859 -9.98205 32965 ft 383 kts 208°
2026-05-05 21:06 28.88887 -10.00319 32967 ft 383 kts 208°
2026-05-05 21:07 28.83895 -10.02439 32935 ft 384 kts 208°
2026-05-05 21:07 28.78872 -10.04572 32945 ft 386 kts 208°
2026-05-05 21:08 28.73837 -10.06708 32950 ft 387 kts 208°
2026-05-05 21:08 28.68795 -10.08850 32954 ft 387 kts 208°
2026-05-05 21:09 28.63767 -10.10981 32958 ft 387 kts 208°
2026-05-05 21:09 28.58713 -10.13113 32985 ft 388 kts 208°
2026-05-05 21:10 28.53655 -10.15253 32959 ft 388 kts 208°
2026-05-05 21:10 28.48600 -10.17387 32965 ft 388 kts 208°
2026-05-05 21:11 28.43570 -10.19508 32968 ft 388 kts 208°
2026-05-05 21:11 28.38506 -10.21646 32979 ft 388 kts 208°
2026-05-05 21:12 28.33441 -10.23778 32977 ft 388 kts 207°
2026-05-05 21:12 28.28386 -10.25897 32986 ft 388 kts 207°
2026-05-05 21:13 28.23324 -10.28019 32965 ft 389 kts 207°
2026-05-05 21:13 28.18278 -10.30136 32975 ft 389 kts 207°
2026-05-05 21:14 28.13204 -10.32267 32980 ft 390 kts 207°
2026-05-05 21:14 28.08104 -10.34397 32985 ft 390 kts 207°
2026-05-05 21:15 28.03013 -10.36525 32990 ft 390 kts 207°
2026-05-05 21:15 27.97961 -10.38644 32997 ft 390 kts 207°
2026-05-05 21:16 27.92858 -10.40776 32967 ft 391 kts 207°
2026-05-05 21:16 27.87760 -10.42899 32979 ft 391 kts 207°
2026-05-05 21:17 27.82681 -10.45014 32987 ft 391 kts 207°
2026-05-05 21:17 27.77573 -10.47138 32987 ft 391 kts 207°
2026-05-05 21:18 27.72517 -10.49234 32992 ft 392 kts 207°
2026-05-05 21:18 27.67400 -10.51359 32995 ft 391 kts 207°
2026-05-05 21:19 27.62521 -10.53949 32967 ft 388 kts 212°
2026-05-05 21:19 27.57670 -10.56629 32975 ft 388 kts 212°
2026-05-05 21:20 27.52848 -10.59286 32984 ft 389 kts 211°
2026-05-05 21:20 27.47998 -10.61945 32987 ft 389 kts 211°
2026-05-05 21:21 27.43130 -10.64616 32988 ft 389 kts 211°
2026-05-05 21:21 27.38261 -10.67292 32986 ft 389 kts 211°
2026-05-05 21:22 27.33426 -10.69947 32988 ft 389 kts 211°
2026-05-05 21:22 27.28559 -10.72619 32987 ft 389 kts 211°
2026-05-05 21:23 27.23712 -10.75268 32986 ft 389 kts 211°
2026-05-05 21:23 27.18839 -10.77934 32987 ft 389 kts 211°
2026-05-05 21:24 27.13995 -10.80581 32978 ft 389 kts 211°
2026-05-05 21:24 27.09122 -10.83233 32982 ft 389 kts 211°
2026-05-05 21:25 27.04257 -10.85880 32953 ft 389 kts 211°
2026-05-05 21:25 26.99389 -10.88528 32957 ft 389 kts 211°
2026-05-05 21:26 26.94512 -10.91180 32967 ft 389 kts 211°
2026-05-05 21:26 26.89638 -10.93836 32969 ft 389 kts 211°
2026-05-05 21:27 26.84796 -10.96465 32968 ft 389 kts 211°
2026-05-05 21:27 26.79919 -10.99109 32968 ft 389 kts 211°
2026-05-05 21:28 26.75042 -11.01757 32977 ft 389 kts 211°
2026-05-05 21:28 26.70173 -11.04394 32962 ft 389 kts 211°
2026-05-05 21:29 26.65326 -11.07009 32960 ft 389 kts 211°
2026-05-05 21:29 26.60452 -11.09645 32963 ft 389 kts 211°
2026-05-05 21:30 26.55577 -11.12277 32969 ft 389 kts 211°
2026-05-05 21:30 26.50706 -11.14909 32969 ft 389 kts 211°
2026-05-05 21:31 26.45827 -11.17539 32976 ft 389 kts 211°
2026-05-05 21:31 26.40956 -11.20151 32937 ft 389 kts 211°
2026-05-05 21:32 26.36077 -11.22775 32946 ft 389 kts 211°
2026-05-05 21:32 26.31194 -11.25406 32951 ft 390 kts 211°
2026-05-05 21:33 26.26311 -11.28025 32956 ft 390 kts 211°
2026-05-05 21:33 26.21415 -11.30650 32961 ft 390 kts 211°
2026-05-05 21:34 26.16589 -11.33229 32980 ft 389 kts 211°
2026-05-05 21:34 26.11710 -11.35843 32982 ft 388 kts 211°
2026-05-05 21:35 26.06851 -11.38447 32953 ft 388 kts 211°
2026-05-05 21:35 26.01988 -11.41048 32955 ft 388 kts 211°
2026-05-05 21:36 25.97119 -11.43645 32958 ft 388 kts 211°
2026-05-05 21:36 25.92247 -11.46236 32954 ft 388 kts 211°
2026-05-05 21:37 25.87381 -11.48829 32958 ft 388 kts 211°
2026-05-05 21:37 25.82523 -11.51416 32959 ft 388 kts 211°
2026-05-05 21:38 25.77655 -11.54006 32925 ft 388 kts 211°
2026-05-05 21:38 25.72764 -11.56610 32926 ft 390 kts 211°
2026-05-05 21:39 25.67859 -11.59219 32930 ft 392 kts 211°
2026-05-05 21:39 25.62966 -11.61805 32925 ft 392 kts 211°
2026-05-05 21:40 25.58028 -11.64419 32921 ft 393 kts 211°
2026-05-05 21:40 25.53094 -11.67031 32923 ft 393 kts 211°
2026-05-05 21:41 25.48177 -11.69632 32938 ft 393 kts 211°
2026-05-05 21:41 25.43240 -11.72241 32926 ft 393 kts 211°
2026-05-05 21:42 25.38307 -11.74846 32935 ft 393 kts 211°
2026-05-05 21:42 25.33367 -11.77442 32935 ft 392 kts 211°
2026-05-05 21:43 25.28447 -11.80035 32932 ft 392 kts 211°
2026-05-05 21:43 25.23515 -11.82643 32931 ft 392 kts 211°
2026-05-05 21:44 25.18599 -11.85230 32933 ft 392 kts 211°
2026-05-05 21:44 25.13710 -11.87801 32894 ft 392 kts 211°
2026-05-05 21:45 25.08780 -11.90394 32904 ft 393 kts 211°
2026-05-05 21:45 25.03866 -11.92962 32909 ft 393 kts 211°
2026-05-05 21:46 24.98931 -11.95546 32905 ft 394 kts 211°
2026-05-05 21:46 24.93942 -11.98156 32909 ft 394 kts 211°
2026-05-05 21:47 24.89025 -12.00730 32908 ft 394 kts 211°
2026-05-05 21:47 24.84062 -12.03323 32885 ft 394 kts 211°
2026-05-05 21:48 24.79100 -12.05906 32901 ft 395 kts 211°
2026-05-05 21:48 24.74136 -12.08499 32904 ft 395 kts 211°
2026-05-05 21:49 24.69179 -12.11088 32901 ft 395 kts 211°
2026-05-05 21:49 24.64202 -12.13686 32902 ft 396 kts 211°
2026-05-05 21:50 24.59246 -12.16263 32902 ft 396 kts 211°
2026-05-05 21:50 24.54297 -12.18836 32904 ft 396 kts 211°
2026-05-05 21:51 24.49330 -12.21423 32884 ft 396 kts 211°
2026-05-05 21:51 24.44346 -12.24011 32890 ft 396 kts 211°
2026-05-05 21:52 24.36864 -12.27884 32902 ft 396 kts 211°
2026-05-05 21:53 24.31896 -12.30460 32905 ft 396 kts 211°
2026-05-05 21:53 24.26914 -12.33032 32907 ft 395 kts 211°
2026-05-05 21:54 24.21951 -12.35598 32905 ft 395 kts 211°
2026-05-05 21:54 24.16969 -12.38180 32904 ft 395 kts 211°
2026-05-05 21:55 24.11990 -12.40747 32903 ft 395 kts 211°
2026-05-05 21:55 24.07034 -12.43300 32902 ft 396 kts 211°
2026-05-05 21:56 24.02900 -12.45430 32899 ft 396 kts 211°
2026-05-05 21:56 23.97909 -12.47991 32898 ft 396 kts 211°
2026-05-05 21:57 23.92104 -12.50982 32901 ft 396 kts 211°
2026-05-05 21:57 23.87948 -12.53123 32901 ft 397 kts 211°
2026-05-05 21:58 23.82957 -12.55687 32879 ft 397 kts 211°
2026-05-05 21:58 23.77945 -12.58251 32885 ft 397 kts 211°
2026-05-05 21:59 23.72938 -12.60821 32890 ft 398 kts 211°
2026-05-05 21:59 23.67926 -12.63392 32894 ft 398 kts 211°
2026-05-05 22:00 23.62938 -12.65951 32896 ft 398 kts 211°
2026-05-05 22:00 23.57958 -12.68496 32897 ft 398 kts 211°
2026-05-05 22:01 23.52942 -12.71052 32878 ft 398 kts 210°
2026-05-05 22:01 23.47925 -12.73611 32886 ft 398 kts 211°
2026-05-05 22:02 23.44588 -12.75317 32884 ft 398 kts 210°
2026-05-05 22:02 23.42079 -12.76596 32540 ft 397 kts 210°
2026-05-05 22:02 23.39553 -12.77883 30787 ft 405 kts 209°
2026-05-05 22:02 23.36971 -12.79200 28934 ft 412 kts 208°
2026-05-05 22:03 23.34394 -12.80513 27063 ft 418 kts 208°
2026-05-05 22:03 23.31726 -12.81873 25226 ft 422 kts 208°
2026-05-05 22:03 23.29046 -12.83235 23508 ft 424 kts 208°
2026-05-05 22:03 23.26377 -12.84593 21649 ft 423 kts 207°
2026-05-05 22:04 23.23763 -12.85921 20124 ft 415 kts 207°
2026-05-05 22:04 23.21177 -12.87232 18693 ft 406 kts 207°
2026-05-05 22:04 23.18643 -12.88515 17217 ft 397 kts 207°
2026-05-05 22:04 23.16170 -12.89769 15697 ft 388 kts 206°
2026-05-05 22:05 23.13754 -12.91008 14188 ft 381 kts 208°
2026-05-05 22:05 23.11650 -12.92699 12644 ft 373 kts 227°
2026-05-05 22:05 23.10258 -12.95042 11256 ft 368 kts 248°
2026-05-05 22:05 23.09818 -12.97696 10561 ft 349 kts 270°
2026-05-05 22:06 23.10041 -13.00215 10248 ft 321 kts 275°
2026-05-05 22:06 23.10309 -13.02504 10094 ft 292 kts 275°
2026-05-05 22:06 23.10562 -13.04622 9978 ft 284 kts 275°
2026-05-05 22:06 23.10813 -13.06735 9899 ft 281 kts 275°
2026-05-05 22:07 23.11088 -13.08826 9913 ft 284 kts 277°
2026-05-05 22:07 23.11439 -13.10994 9914 ft 305 kts 278°
2026-05-05 22:07 23.11849 -13.13340 9915 ft 327 kts 279°
2026-05-05 22:07 23.12296 -13.15828 9913 ft 343 kts 279°
2026-05-05 22:08 23.12758 -13.18398 9907 ft 348 kts 279°
2026-05-05 22:08 23.13217 -13.20983 9910 ft 362 kts 279°
2026-05-05 22:08 23.13694 -13.23734 9906 ft 379 kts 279°
2026-05-05 22:08 23.14181 -13.26595 9902 ft 390 kts 279°
2026-05-05 22:09 23.14677 -13.29513 9909 ft 394 kts 279°
2026-05-05 22:09 23.15175 -13.32438 9900 ft 386 kts 279°
2026-05-05 22:09 23.15664 -13.35317 9911 ft 391 kts 279°
2026-05-05 22:09 23.16155 -13.38220 9908 ft 393 kts 279°
2026-05-05 22:10 23.16650 -13.41148 9911 ft 393 kts 279°
2026-05-05 22:10 23.17145 -13.44071 9914 ft 394 kts 279°
2026-05-05 22:10 23.17638 -13.46977 9909 ft 397 kts 279°
2026-05-05 22:10 23.18141 -13.49926 9917 ft 398 kts 278°
2026-05-05 22:11 23.18646 -13.52875 9909 ft 398 kts 278°
2026-05-05 22:11 23.19148 -13.55840 9909 ft 398 kts 278°
2026-05-05 22:11 23.19645 -13.58791 9913 ft 398 kts 278°
2026-05-05 22:11 23.20140 -13.61757 9908 ft 398 kts 278°
2026-05-05 22:12 23.20637 -13.64722 9903 ft 398 kts 278°
2026-05-05 22:12 23.21127 -13.67638 9903 ft 398 kts 278°
2026-05-05 22:12 23.21617 -13.70557 9904 ft 398 kts 278°
2026-05-05 22:12 23.22120 -13.73567 9905 ft 398 kts 278°
2026-05-05 22:13 23.22618 -13.76528 9906 ft 398 kts 278°
2026-05-05 22:13 23.23111 -13.79452 9901 ft 399 kts 278°
2026-05-05 22:13 23.23608 -13.82422 9905 ft 399 kts 278°
2026-05-05 22:13 23.24101 -13.85397 9906 ft 399 kts 278°
2026-05-05 22:14 23.24591 -13.88353 9906 ft 396 kts 277°
2026-05-05 22:14 23.25073 -13.91254 9904 ft 393 kts 277°
2026-05-05 22:14 23.25554 -13.94153 9900 ft 393 kts 277°
2026-05-05 22:14 23.26032 -13.97014 9900 ft 392 kts 278°
2026-05-05 22:15 23.26512 -13.99885 9903 ft 393 kts 277°
2026-05-05 22:15 23.27008 -14.02871 9904 ft 393 kts 277°
2026-05-05 22:15 23.27489 -14.05790 9903 ft 392 kts 277°
2026-05-05 22:15 23.27971 -14.08710 9900 ft 393 kts 277°
2026-05-05 22:16 23.28455 -14.11634 9905 ft 393 kts 277°
2026-05-05 22:16 23.28937 -14.14565 9903 ft 393 kts 277°
2026-05-05 22:16 23.29409 -14.17438 9904 ft 393 kts 277°
2026-05-05 22:16 23.29891 -14.20366 9907 ft 393 kts 277°
2026-05-05 22:17 23.30371 -14.23283 9911 ft 393 kts 277°
2026-05-05 22:17 23.30852 -14.26221 9919 ft 392 kts 277°
2026-05-05 22:17 23.31327 -14.29134 9922 ft 391 kts 276°
2026-05-05 22:17 23.31801 -14.32034 9921 ft 391 kts 276°
2026-05-05 22:18 23.32282 -14.34954 9926 ft 390 kts 277°
2026-05-05 22:18 23.32755 -14.37813 9923 ft 390 kts 277°
2026-05-05 22:18 23.33221 -14.40661 9928 ft 390 kts 276°
2026-05-05 22:18 23.33702 -14.43616 9924 ft 390 kts 276°
2026-05-05 22:19 23.34171 -14.46522 9930 ft 389 kts 276°
2026-05-05 22:19 23.34643 -14.49432 9925 ft 389 kts 276°
2026-05-05 22:19 23.35111 -14.52319 9932 ft 389 kts 276°
2026-05-05 22:19 23.35582 -14.55226 9931 ft 389 kts 276°
2026-05-05 22:20 23.36045 -14.58095 9925 ft 389 kts 276°
2026-05-05 22:20 23.36518 -14.61026 9926 ft 389 kts 276°
2026-05-05 22:20 23.36977 -14.63870 9926 ft 389 kts 276°
2026-05-05 22:20 23.37445 -14.66753 9939 ft 386 kts 276°
2026-05-05 22:21 23.37911 -14.69608 9913 ft 381 kts 276°
2026-05-05 22:21 23.38373 -14.72454 9914 ft 380 kts 276°
2026-05-05 22:21 23.38829 -14.75288 9915 ft 380 kts 276°
2026-05-05 22:21 23.39282 -14.78121 9914 ft 380 kts 276°
2026-05-05 22:22 23.39730 -14.80927 9920 ft 380 kts 276°
2026-05-05 22:22 23.40180 -14.83745 9920 ft 380 kts 276°
2026-05-05 22:22 23.40629 -14.86547 9921 ft 380 kts 276°
2026-05-05 22:22 23.41080 -14.89372 9926 ft 380 kts 276°
2026-05-05 22:23 23.41529 -14.92200 9924 ft 380 kts 276°
2026-05-05 22:23 23.41979 -14.95044 9929 ft 380 kts 276°
2026-05-05 22:23 23.42429 -14.97877 9929 ft 380 kts 276°
2026-05-05 22:23 23.42880 -15.00708 9805 ft 379 kts 276°
2026-05-05 22:24 23.43332 -15.03543 9688 ft 379 kts 276°
2026-05-05 22:24 23.43774 -15.06325 9561 ft 378 kts 276°
2026-05-05 22:24 23.44223 -15.09145 9434 ft 377 kts 276°
2026-05-05 22:24 23.44671 -15.11959 9308 ft 377 kts 276°
2026-05-05 22:25 23.45117 -15.14761 9176 ft 376 kts 277°
2026-05-05 22:25 23.45559 -15.17563 9040 ft 375 kts 277°
2026-05-05 22:25 23.46000 -15.20363 8900 ft 374 kts 277°
2026-05-05 22:25 23.46438 -15.23140 8937 ft 374 kts 277°
2026-05-05 22:26 23.46878 -15.25937 8930 ft 374 kts 277°
2026-05-05 22:26 23.47316 -15.28729 8932 ft 374 kts 277°
2026-05-05 22:26 23.47748 -15.31498 8935 ft 375 kts 277°
2026-05-05 22:26 23.48181 -15.34271 8935 ft 371 kts 277°
2026-05-05 22:27 23.48611 -15.37030 8937 ft 369 kts 276°
2026-05-05 22:27 23.49040 -15.39778 8934 ft 368 kts 277°
2026-05-05 22:27 23.49469 -15.42519 8938 ft 369 kts 276°
2026-05-05 22:27 23.49897 -15.45261 8939 ft 369 kts 276°
2026-05-05 22:28 23.50328 -15.48022 8940 ft 369 kts 276°
2026-05-05 22:28 23.50751 -15.50747 8937 ft 369 kts 276°
2026-05-05 22:28 23.51181 -15.53507 8936 ft 369 kts 276°
2026-05-05 22:28 23.51611 -15.56261 8937 ft 369 kts 276°
2026-05-05 22:29 23.52040 -15.59014 8935 ft 369 kts 276°
2026-05-05 22:29 23.52468 -15.61781 8937 ft 369 kts 276°
2026-05-05 22:29 23.52893 -15.64531 8946 ft 369 kts 276°
2026-05-05 22:29 23.53318 -15.67293 8948 ft 368 kts 276°
2026-05-05 22:30 23.53739 -15.70041 8952 ft 368 kts 276°
2026-05-05 22:30 23.54164 -15.72793 8953 ft 368 kts 276°
2026-05-05 22:30 23.54589 -15.75541 8553 ft 365 kts 276°
2026-05-05 22:30 23.55003 -15.78215 7636 ft 360 kts 277°
2026-05-05 22:31 23.55414 -15.80889 6741 ft 356 kts 277°
2026-05-05 22:31 23.55819 -15.83538 5848 ft 352 kts 277°
2026-05-05 22:31 23.56302 -15.86148 4963 ft 354 kts 286°
2026-05-05 22:31 23.57265 -15.88640 4125 ft 351 kts 297°
2026-05-05 22:32 23.58322 -15.90902 3714 ft 320 kts 296°
2026-05-05 22:32 23.59260 -15.92982 3476 ft 290 kts 296°
2026-05-05 22:32 23.60174 -15.94816 3320 ft 261 kts 301°
2026-05-05 22:32 23.60958 -15.96517 2983 ft 246 kts 289°
2026-05-05 22:33 23.61089 -15.98273 2667 ft 231 kts 259°
2026-05-05 22:33 23.60378 -15.99789 2210 ft 226 kts 228°
2026-05-05 22:33 23.59282 -16.01028 1990 ft 231 kts 227°
2026-05-05 22:33 23.58137 -16.02275 1984 ft 233 kts 228°
2026-05-05 22:34 23.57054 -16.03580 1978 ft 234 kts 221°
2026-05-05 22:34 23.55592 -16.04328 1982 ft 233 kts 186°
2026-05-05 22:34 23.54028 -16.04115 1976 ft 227 kts 150°
2026-05-05 22:34 23.52880 -16.03032 1975 ft 213 kts 113°
2026-05-05 22:35 23.52711 -16.01618 1982 ft 181 kts 67°
2026-05-05 22:35 23.53487 -16.00729 1970 ft 159 kts 16°
2026-05-05 22:35 23.54559 -16.00791 1974 ft 156 kts 354°
2026-05-05 22:35 23.55561 -16.00603 1979 ft 146 kts 31°
2026-05-05 22:36 23.56469 -16.00089 1981 ft 148 kts 17°
2026-05-05 22:36 23.57448 -15.99719 1982 ft 150 kts 21°
2026-05-05 22:36 23.58414 -15.99301 1984 ft 149 kts 22°
2026-05-05 22:36 23.59372 -15.98874 1982 ft 149 kts 23°
2026-05-05 22:37 23.60323 -15.98445 1990 ft 152 kts 23°
2026-05-05 22:37 23.61278 -15.98012 1902 ft 147 kts 24°
2026-05-05 22:37 23.62215 -15.97586 1747 ft 141 kts 22°
2026-05-05 22:37 23.62752 -15.97341 1655 ft 139 kts 23°
2026-05-05 22:39 23.63463 -15.97020 1519 ft 146 kts 22°
2026-05-05 22:40 23.64375 -15.96603 1329 ft 140 kts 21°
2026-05-05 22:40 23.65266 -15.96196 1152 ft 138 kts 21°
2026-05-05 22:40 23.66148 -15.95793 982 ft 135 kts 22°
2026-05-05 22:40 23.67007 -15.95400 807 ft 134 kts 23°
2026-05-05 22:41 23.67867 -15.94996 631 ft 136 kts 19°
2026-05-05 22:41 23.68752 -15.94604 499 ft 138 kts 21°
2026-05-05 22:41 23.69618 -15.94203 305 ft 135 kts 23°
2026-05-05 22:41 23.70481 -15.93820 115 ft 134 kts 24°
2026-05-05 22:42 23.71294 -15.93440 41 ft 104 kts 23°
2026-05-05 22:42 23.71686 -15.93257 38 ft 27 kts 22°
2026-05-05 22:42 23.71791 -15.93212 36 ft 12 kts 21°
2026-05-05 22:42 23.71876 -15.93176 36 ft 13 kts 21°
2026-05-05 22:43 23.71965 -15.93138 36 ft 14 kts 21°
2026-05-05 22:43 23.72058 -15.93094 34 ft 15 kts 24°
2026-05-05 22:43 23.72159 -15.93046 35 ft 16 kts 23°
2026-05-05 22:43 23.72261 -15.92998 36 ft 16 kts 23°
2026-05-05 22:44 23.72361 -15.92953 35 ft 16 kts 22°
2026-05-05 22:44 23.72468 -15.92905 34 ft 17 kts 22°
2026-05-05 22:44 23.72553 -15.92833 35 ft 16 kts 73°
2026-05-05 22:44 23.72521 -15.92728 34 ft 14 kts 145°
2026-05-05 22:45 23.72439 -15.92717 35 ft 11 kts 205°
2026-05-05 22:45 23.72374 -15.92751 35 ft 10 kts 203°
2026-05-05 22:45 23.72315 -15.92779 35 ft 9 kts 203°
2026-05-05 22:45 23.72265 -15.92802 35 ft 8 kts 203°
2026-05-05 22:46 23.72219 -15.92823 36 ft 7 kts 202°
2026-05-05 22:46 23.72179 -15.92841 36 ft 6 kts 202°
2026-05-05 22:46 23.72142 -15.92858 36 ft 5 kts 202°
2026-05-05 22:46 23.72107 -15.92873 36 ft 7 kts 202°
2026-05-05 22:47 23.72013 -15.92915 35 ft 21 kts 202°
2026-05-05 22:47 23.71917 -15.92960 36 ft 10 kts 204°
2026-05-05 22:47 23.71856 -15.92990 36 ft 10 kts 204°
2026-05-05 22:47 23.71788 -15.93024 37 ft 11 kts 204°
2026-05-05 22:48 23.71715 -15.93053 37 ft 12 kts 200°
2026-05-05 22:48 23.71639 -15.93083 37 ft 12 kts 200°
2026-05-05 22:48 23.71561 -15.93115 37 ft 12 kts 203°
2026-05-05 22:48 23.71502 -15.93089 38 ft 10 kts 121°
2026-05-05 22:49 23.71476 -15.93013 37 ft 11 kts 107°
2026-05-05 22:49 23.71451 -15.92942 36 ft 7 kts 114°
2026-05-05 22:49 23.71417 -15.92904 37 ft 7 kts 169°
2026-05-05 22:49 23.71396 -15.92917 36 ft 2 kts 226°
2026-05-05 22:50 23.71395 -15.92936 38 ft 1 kts 275°
2026-05-05 22:50 23.71399 -15.92946 38 ft 1 kts 297°
2026-05-05 22:50 23.71398 -15.92944 38 ft 0 kts 303°
2026-05-05 22:50 23.71401 -15.92948 38 ft 1 kts 303°